SEH021 LGSO-LGAV

Flight info

Callsign SEH021
Flight time 0h 21m
Altitude 7000
Route VARIX
Aircraft AT45/M-SDFGIRY/S

Departure

Time 2026-05-04 18:28
Airport Syros Airport (LGSO)

Arrival

Time 2026-05-04 18:50
Airport Athens Eleftherios Venizelos International Airport (LGAV)
Time Latitude Longitude Altitude Speed Heading
2026-05-04 18:11 37.42221 24.94839 231 ft 0 kts 270°
2026-05-04 18:24 37.42222 24.94836 238 ft 1 kts 312°
2026-05-04 18:24 37.42275 24.94843 239 ft 3 kts 89°
2026-05-04 18:24 37.42239 24.94911 236 ft 1 kts 64°
2026-05-04 18:24 37.42240 24.94911 236 ft 0 kts 56°
2026-05-04 18:25 37.42255 24.94946 239 ft 17 kts 58°
2026-05-04 18:25 37.42251 24.95001 237 ft 2 kts 178°
2026-05-04 18:25 37.42284 24.95000 238 ft 7 kts 178°
2026-05-04 18:26 37.42340 24.94998 239 ft 9 kts 179°
2026-05-04 18:26 37.42411 24.94998 239 ft 11 kts 181°
2026-05-04 18:26 37.42494 24.95001 238 ft 12 kts 182°
2026-05-04 18:26 37.42579 24.95007 239 ft 12 kts 183°
2026-05-04 18:27 37.42652 24.95005 241 ft 6 kts 181°
2026-05-04 18:27 37.42640 24.95005 241 ft 0 kts 181°
2026-05-04 18:28 37.42593 24.95003 239 ft 37 kts 183°
2026-05-04 18:28 37.42022 24.94983 237 ft 129 kts 183°
2026-05-04 18:28 37.40964 24.95039 680 ft 171 kts 177°
2026-05-04 18:28 37.39636 24.95117 1194 ft 210 kts 180°
2026-05-04 18:29 37.38083 24.95115 1725 ft 235 kts 181°
2026-05-04 18:29 37.36383 24.95095 2245 ft 251 kts 181°
2026-05-04 18:29 37.34696 24.95622 2745 ft 262 kts 150°
2026-05-04 18:29 37.33428 24.97262 3247 ft 268 kts 117°
2026-05-04 18:30 37.33531 25.01686 4263 ft 250 kts 53°
2026-05-04 18:30 37.34752 25.03077 4783 ft 236 kts 21°
2026-05-04 18:30 37.36315 25.03305 5301 ft 226 kts 347°
2026-05-04 18:31 37.37619 25.02279 5805 ft 227 kts 312°
2026-05-04 18:31 37.38142 25.00392 6322 ft 238 kts 277°
2026-05-04 18:31 37.37961 24.98339 6816 ft 236 kts 269°
2026-05-04 18:31 37.37838 24.96163 6931 ft 262 kts 275°
2026-05-04 18:32 37.37857 24.93805 6962 ft 273 kts 278°
2026-05-04 18:32 37.38095 24.91444 6974 ft 272 kts 286°
2026-05-04 18:32 37.38588 24.89178 6978 ft 269 kts 293°
2026-05-04 18:32 37.39247 24.86973 6989 ft 269 kts 296°
2026-05-04 18:33 37.39931 24.84798 6987 ft 268 kts 296°
2026-05-04 18:33 37.40603 24.82628 7001 ft 269 kts 295°
2026-05-04 18:33 37.41266 24.80387 6997 ft 270 kts 294°
2026-05-04 18:33 37.41913 24.78171 6995 ft 270 kts 294°
2026-05-04 18:34 37.42546 24.75977 6998 ft 271 kts 294°
2026-05-04 18:34 37.43197 24.73720 6996 ft 270 kts 294°
2026-05-04 18:34 37.43838 24.71499 6991 ft 270 kts 294°
2026-05-04 18:34 37.44480 24.69271 6988 ft 271 kts 294°
2026-05-04 18:35 37.45124 24.67041 6998 ft 271 kts 294°
2026-05-04 18:35 37.45754 24.64852 6991 ft 271 kts 294°
2026-05-04 18:35 37.46395 24.62618 6997 ft 271 kts 294°
2026-05-04 18:35 37.47036 24.60388 6994 ft 271 kts 294°
2026-05-04 18:36 37.47686 24.58124 7001 ft 271 kts 294°
2026-05-04 18:36 37.48314 24.55923 6992 ft 271 kts 294°
2026-05-04 18:36 37.48954 24.53691 6995 ft 271 kts 294°
2026-05-04 18:36 37.49557 24.51442 6991 ft 271 kts 293°
2026-05-04 18:37 37.50182 24.49220 6997 ft 271 kts 294°
2026-05-04 18:37 37.50836 24.46980 6996 ft 271 kts 295°
2026-05-04 18:37 37.51498 24.44750 6992 ft 271 kts 295°
2026-05-04 18:37 37.51901 24.43401 6994 ft 271 kts 295°
2026-05-04 18:38 37.52569 24.41172 6996 ft 271 kts 295°
2026-05-04 18:38 37.53235 24.38954 6995 ft 271 kts 295°
2026-05-04 18:38 37.53901 24.36739 6996 ft 271 kts 295°
2026-05-04 18:38 37.54569 24.34520 7000 ft 271 kts 295°
2026-05-04 18:39 37.55239 24.32297 6993 ft 271 kts 295°
2026-05-04 18:39 37.55924 24.30053 6633 ft 276 kts 295°
2026-05-04 18:39 37.56603 24.27824 6509 ft 270 kts 295°
2026-05-04 18:39 37.57267 24.25615 6367 ft 270 kts 295°
2026-05-04 18:40 37.57937 24.23395 6131 ft 270 kts 295°
2026-05-04 18:40 37.58607 24.21183 5917 ft 270 kts 295°
2026-05-04 18:40 37.59281 24.18973 5705 ft 270 kts 295°
2026-05-04 18:40 37.59955 24.16769 5487 ft 270 kts 295°
2026-05-04 18:41 37.60631 24.14566 5281 ft 269 kts 295°
2026-05-04 18:41 37.61307 24.12375 5120 ft 267 kts 295°
2026-05-04 18:41 37.61981 24.10199 5047 ft 266 kts 295°
2026-05-04 18:41 37.62660 24.08020 5026 ft 266 kts 295°
2026-05-04 18:42 37.63335 24.05854 5005 ft 266 kts 295°
2026-05-04 18:42 37.64011 24.03687 4999 ft 265 kts 295°
2026-05-04 18:42 37.64683 24.01528 4995 ft 265 kts 295°
2026-05-04 18:42 37.65356 23.99371 4996 ft 260 kts 295°
2026-05-04 18:43 37.66019 23.97252 4995 ft 259 kts 295°
2026-05-04 18:43 37.66673 23.95169 4995 ft 259 kts 295°
2026-05-04 18:43 37.67333 23.93061 4994 ft 256 kts 295°
2026-05-04 18:43 37.67973 23.90999 4992 ft 249 kts 295°
2026-05-04 18:44 37.68596 23.88975 4997 ft 245 kts 295°
2026-05-04 18:44 37.68818 23.88310 4990 ft 242 kts 298°
2026-05-04 18:44 37.70180 23.85234 4477 ft 237 kts 304°
2026-05-04 18:44 37.71039 23.83462 4075 ft 238 kts 304°
2026-05-04 18:45 37.71930 23.81667 3573 ft 243 kts 304°
2026-05-04 18:45 37.72977 23.80065 3253 ft 233 kts 326°
2026-05-04 18:45 37.74470 23.79441 3120 ft 225 kts 351°
2026-05-04 18:45 37.76019 23.79182 3061 ft 221 kts 354°
2026-05-04 18:46 37.77489 23.79560 3023 ft 221 kts 29°
2026-05-04 18:46 37.78702 23.80728 3006 ft 219 kts 36°
2026-05-04 18:46 37.79929 23.81904 2852 ft 226 kts 34°
2026-05-04 18:46 37.81273 23.83023 2504 ft 236 kts 30°
2026-05-04 18:47 37.82726 23.84032 2213 ft 239 kts 26°
2026-05-04 18:47 37.83952 23.84787 2115 ft 211 kts 25°
2026-05-04 18:47 37.85118 23.85489 2057 ft 159 kts 24°
2026-05-04 18:47 37.86004 23.86027 1952 ft 138 kts 27°
2026-05-04 18:48 37.86814 23.86698 1759 ft 140 kts 34°
2026-05-04 18:48 37.87597 23.87437 1559 ft 141 kts 37°
2026-05-04 18:48 37.88112 23.87947 1391 ft 143 kts 37°
2026-05-04 18:48 37.89146 23.88979 1124 ft 140 kts 37°
2026-05-04 18:49 37.89867 23.89701 1055 ft 136 kts 38°
2026-05-04 18:49 37.90613 23.90428 941 ft 138 kts 36°
2026-05-04 18:49 37.91412 23.91170 645 ft 144 kts 36°
2026-05-04 18:49 37.92219 23.91943 336 ft 144 kts 36°
2026-05-04 18:50 37.92748 23.92463 284 ft 138 kts 37°
2026-05-04 18:50 37.93684 23.93339 280 ft 112 kts 41°
2026-05-04 18:50 37.93915 23.93612 279 ft 18 kts 65°
2026-05-04 18:50 37.93924 23.93657 279 ft 7 kts 77°
2026-05-04 18:51 37.93925 23.93661 279 ft 0 kts 77°
2026-05-04 18:51 37.93931 23.93690 278 ft 7 kts 73°
2026-05-04 18:51 37.93950 23.93738 278 ft 8 kts 64°
2026-05-04 18:52 37.93980 23.93816 279 ft 11 kts 63°
2026-05-04 18:52 37.94013 23.93906 281 ft 12 kts 63°
2026-05-04 18:52 37.94093 23.94014 283 ft 16 kts 33°
2026-05-04 18:52 37.94178 23.94082 285 ft 13 kts 31°
2026-05-04 18:53 37.94245 23.94140 289 ft 11 kts 36°
2026-05-04 18:53 37.94310 23.94199 286 ft 12 kts 35°
2026-05-04 18:53 37.94375 23.94267 286 ft 12 kts 42°
2026-05-04 18:53 37.94437 23.94336 286 ft 12 kts 40°
2026-05-04 18:54 37.94502 23.94402 286 ft 12 kts 38°
2026-05-04 18:54 37.94581 23.94477 291 ft 21 kts 35°
2026-05-04 18:54 37.94686 23.94637 290 ft 28 kts 103°
2026-05-04 18:54 37.94557 23.94839 282 ft 34 kts 122°
2026-05-04 18:55 37.94414 23.95081 274 ft 31 kts 131°
2026-05-04 18:55 37.94330 23.95233 277 ft 5 kts 102°
2026-05-04 18:55 37.94338 23.95269 278 ft 5 kts 58°
2026-05-04 18:56 37.94358 23.95302 279 ft 2 kts 34°
2026-05-04 18:56 37.94374 23.95310 279 ft 4 kts 27°
2026-05-04 18:56 37.94390 23.95325 279 ft 0 kts 37°